Погода в Бояринове

Россия / Псковская область     56°08′08″N   28°52′36″E
темп.,
°C
ветер,
м/с
пор.,
м/с
влажн.,
%
обл.,
%
осадки,
мм/ч
давл.,
гПа
погр.,
м
25 октября, пн
пн2500:00−1зюз22855 0.0 102928
03:000ююз2693100 0.0 1029133
06:000ююз3109542 0.0 1028254
09:00+1юз4119182 0.0 1028357
12:00+5юз510725 0.0 1027616
15:00+7юз511665 0.0 1025834
18:00+4ююз4127139 0.0 1024515
21:00+4ююз51475100 0.0 1023512
26 октября, вт
вт2600:00+3ююз51377100 0.0 1023467
03:00+3ююз41378100 0.0 1022452
06:00+3ююз41377100 0.0 1020418
09:00+3ююз41375100 0.0 1019416
12:00+6юз41264100 0.0 1018519
15:00+7ююз41063100 0.0 1016609
18:00+6ююз41269100 0.0 1016507
21:00+5ююз41175100 0.0 1016430
27 октября, ср
ср2700:00+4ююз41180100 0.0 1015396
03:00+5юз41282100 0.0 1013492
06:00+6юз41291100 0.7 1013627
09:00+7зюз41093100 0.7 1013850
12:00+8з4979100 0.1 10141128
15:00+8зюз51079100 0.3 10151044
18:00+8зюз41079100 0.0 1015856
21:00+7юз41186100 0.0 1014566
28 октября, чт
чт2800:00+7ююз51394100 1.6 1012799
03:00+9зюз51394100 2.8 1011774
06:00+10з51294100 0.1 1011769
09:00+11з51292100 0.1 1012820
12:00+12зсз5118276 0.2 1014968
15:00+12зсз597418 0.3 10161152
18:00+9сз388098 0.1 1019535
21:00+6ссз239319 0.1 102183
29 октября, пт
пт2900:00+7з1186100 0.0 102315
03:00+7ю2387100 0.0 102483
06:00+8ю3789100 0.0 1024230
09:00+8ююз2796100 0.1 1025241
12:00+12юз358434 0.0 1025444
15:00+13юз36745 0.0 1025519
18:00+10ююз26918 0.0 1026112
21:00+9ю399666 0.0 1026191